sat.trackr.live / text

‹ back to catalog

STARLINK-11236 [DTC]

NORAD 61062 · 2024-164N

PAYLOAD ACTIVE UNKNOWN

§ Identity

Operator
Country
US
Launch date
2024-09-13
Launch site
AFWTR
Launch vehicle
Mass (kg)
RCS (m²)

Purposes: comms

External: N2YO · Heavens-Above · Gunter

§ Orbital elements

Epoch: 2026-05-25T03:06:35.047584Z

Period
91.74 min
Inclination
53.1597°
Eccentricity
0.0001035
Mean motion
15.69710804 rev/d
Perigee alt
359.0 km
Apogee alt
360.4 km
Semi-major
6,737.9 km
B*
1.2159e-5
RAAN
294.5149°
Arg perigee
82.8199°
Mean anomaly
277.2937°
Rev number
9,742

§ Raw data

STARLINK-11236 [DTC]1 61062U 24164N   26145.12957231  .00000885  00000+0  12159-4 0  99922 61062  53.1597 294.5149 0001035  82.8199 277.2937 15.69710804 97427

JSON: /api/v1/satellites/61062 · /tle

For live sub-satellite position, see the globe view (requires WebGL).

§ Visibility from observer

Set your observer location to see the next 7 days of passes ≥ 10°. The values pass through the URL so the page stays shareable.

No JS? Fill the form by hand. The geolocation button needs JavaScript.